GFSSW_sfc_30mbdewp_273.txt.gz
Dewpoint
57 57 56 56 56 56 56 57 56 56 57 57 58 58 58 58 57 50 13 25 37 68 66 65 65 67 66 63 61 64 54 39 35 38 41 48 50 52 53 52 52 52 57 61 65
56 56 56 56 56 56 56 56 56 56 56 57 58 58 58 58 50 29 28 51 64 68 65 63 61 65 63 62 60 56 51 49 43 38 41 46 49 51 51 50 51 52 55 62 62
56 56 55 56 56 56 56 56 56 56 56 57 58 58 58 58 42 24 44 63 63 65 65 66 66 65 62 60 58 56 51 52 47 39 42 46 49 50 50 50 51 51 54 60 60
55 55 55 55 55 56 55 55 55 55 55 57 57 58 58 51 27 37 60 66 66 59 55 57 65 60 57 56 58 53 54 53 44 42 42 46 49 49 50 51 52 53 57 59 59
56 56 55 55 55 55 55 55 55 55 56 57 57 57 50 32 22 53 54 61 58 53 56 57 57 54 53 53 55 54 54 48 42 41 44 46 47 48 50 51 53 53 54 57 57
55 55 55 54 54 55 55 55 55 56 57 57 57 57 40 26 40 51 48 52 50 58 57 54 49 52 50 53 51 54 53 46 44 42 43 44 46 47 50 52 52 52 52 53 54
55 55 55 55 55 55 55 55 55 57 57 57 57 54 37 22 37 49 48 43 54 57 53 48 45 48 53 53 57 55 51 49 51 50 45 43 43 46 48 50 51 51 51 51 52
54 54 54 54 54 55 55 54 56 57 57 57 57 51 13 33 41 41 45 40 41 45 47 46 46 44 55 58 55 51 51 47 50 53 52 46 41 44 47 48 48 49 49 50 51
54 54 54 54 54 54 55 55 55 57 57 57 47 41 14 38 36 36 42 36 37 37 38 38 32 53 53 50 47 49 46 47 48 53 52 48 44 44 46 46 47 48 48 50 50
54 54 53 53 53 53 53 54 56 54 55 54 49 35 31 31 33 32 37 39 34 21 16 22 31 43 51 47 39 41 44 47 45 49 51 49 47 43 45 46 46 48 49 51 50
53 53 53 53 53 53 49 47 38 34 40 12 26 28 30 34 30 31 30 29 25 14 11 18 27 32 43 49 47 45 47 46 49 50 50 47 49 44 45 47 47 48 50 51 50
53 53 53 52 52 53 49 34 37 29 29 30 28 34 33 29 24 25 23 22 15 12 10 12 18 22 30 35 43 45 45 46 50 52 49 47 46 51 47 46 47 47 50 51 50
53 53 53 52 52 49 38 34 38 36 27 24 30 26 24 24 22 22 22 17 12 10 9 10 20 18 15 29 40 46 44 45 46 50 51 47 44 46 51 46 47 47 50 51 51
53 53 52 50 46 48 41 41 42 33 23 25 25 24 22 21 21 23 21 14 12 7 7 10 12 12 16 34 46 43 47 46 47 46 42 47 40 44 50 49 47 47 47 51 52
53 52 52 51 41 42 39 46 43 28 20 27 24 21 19 17 16 18 16 14 11 9 11 10 13 17 17 16 43 40 31 46 47 46 44 45 43 43 47 50 51 48 46 49 53
52 52 51 50 48 42 45 42 29 23 20 23 16 14 17 17 17 18 16 16 16 13 15 14 18 18 17 16 29 24 16 14 36 40 39 38 42 39 45 46 50 52 47 47 52
52 51 50 46 34 43 43 33 21 20 23 16 18 13 13 14 15 16 15 15 12 11 11 16 17 18 16 15 13 11 11 10 10 20 20 28 41 37 32 45 49 51 49 46 48
51 49 49 46 45 46 36 29 19 26 28 29 28 15 12 15 15 18 16 14 16 17 17 15 13 15 15 14 12 9 10 9 7 10 13 15 12 14 47 50 48 51 50 47 48
49 39 41 42 47 44 33 22 21 29 29 29 27 14 13 15 15 16 17 16 17 18 15 15 15 18 17 14 11 10 8 10 7 10 6 6 24 43 48 50 50 52 49 48 49
41 40 39 47 46 36 30 26 31 31 30 29 26 25 24 22 13 14 15 17 18 19 18 17 14 16 16 16 12 12 11 7 7 3 3 5 16 26 44 48 50 51 49 50 51
39 36 36 46 38 33 27 28 31 32 31 28 27 26 26 25 22 20 20 21 18 18 19 18 16 17 17 16 16 9 7 7 8 7 4 4 10 38 42 46 49 50 50 50 51
33 37 36 39 35 35 31 32 33 31 31 27 29 28 27 23 23 22 22 23 30 28 23 20 17 16 17 18 17 13 9 8 5 4 12 8 5 17 28 37 48 49 50 51 53
36 37 37 36 30 29 28 31 28 25 25 22 26 27 27 27 25 25 25 32 36 33 32 23 19 16 17 17 16 12 10 9 10 9 8 6 5 11 40 45 47 49 50 53 54
39 26 34 33 33 28 27 26 21 23 25 23 25 26 27 28 30 29 33 36 39 39 42 32 19 19 18 16 16 14 13 10 9 8 8 8 7 10 28 42 49 49 50 52 54
40 37 40 31 29 33 30 25 24 27 27 26 24 26 32 29 35 38 39 38 38 39 37 34 29 26 28 24 17 15 14 12 10 10 8 9 10 11 21 36 48 50 52 52 54
40 39 42 36 38 30 30 30 30 32 31 26 29 28 38 37 38 37 38 37 37 38 38 37 31 33 31 25 27 15 16 16 14 14 13 13 14 17 26 50 49 51 53 54 58
46 46 42 36 35 27 32 35 33 36 34 31 33 28 31 36 38 38 39 37 36 38 37 36 35 34 30 30 28 19 15 15 14 16 16 15 19 27 31 51 51 54 56 57 61

GFSSW_sfc_30mbdewp_276.txt.gz
Dewpoint
56 56 56 56 56 56 56 56 56 56 56 56 57 58 58 58 56 49 14 22 49 65 68 65 67 65 65 62 62 65 46 44 36 42 46 50 50 52 53 53 52 54 60 63 66
55 55 55 55 56 56 56 56 56 56 56 56 57 58 58 58 49 26 22 39 49 68 65 64 64 65 63 60 58 54 48 48 43 40 47 49 50 51 51 51 52 60 64 65 65
56 56 55 55 55 55 55 55 55 55 55 55 57 58 58 58 40 22 35 58 67 68 65 66 66 64 59 58 57 56 49 53 50 40 47 49 50 51 50 50 53 57 62 63 64
56 56 55 54 55 55 55 55 55 55 55 55 57 58 58 51 25 37 54 65 67 60 59 63 63 57 55 53 58 53 54 54 47 45 48 49 50 49 50 51 53 59 62 62 63
55 55 55 55 55 55 55 55 54 54 55 56 57 58 51 28 26 63 67 66 59 50 52 57 59 56 51 54 54 52 52 46 43 44 47 49 49 49 50 52 54 57 61 61 62
55 55 55 55 55 54 54 54 54 54 56 57 57 57 39 29 44 61 62 55 46 49 54 58 51 55 52 53 52 54 53 48 44 45 45 47 48 48 51 52 55 58 59 60 61
54 54 54 54 54 55 54 54 54 55 57 57 57 55 33 24 43 51 51 45 48 56 57 52 46 49 53 52 57 53 49 50 50 45 45 46 45 46 51 52 52 54 57 58 58
54 54 54 54 54 54 54 54 54 56 57 57 57 49 12 29 45 45 46 42 49 57 49 47 45 51 56 57 53 50 50 45 50 50 46 44 41 46 51 51 51 52 52 54 54
55 54 54 54 54 54 54 54 56 57 57 57 47 38 10 39 35 35 42 37 38 38 40 41 38 53 53 49 47 48 46 48 48 53 51 46 43 45 49 51 50 51 51 51 51
54 54 54 54 54 53 53 54 57 55 55 54 49 32 26 30 33 33 40 39 33 21 17 26 35 45 51 46 37 42 43 47 47 49 52 49 45 44 46 49 49 49 49 50 50
54 54 54 54 53 53 52 49 35 31 38 9 24 25 30 32 33 31 33 33 23 15 12 18 27 32 43 48 45 45 45 44 48 50 50 49 49 44 45 46 47 47 48 49 50
54 54 54 53 52 53 47 34 34 33 31 31 29 32 33 30 22 28 27 24 17 15 11 12 22 25 34 42 45 46 44 43 48 51 50 47 46 51 44 45 46 47 48 49 51
54 53 53 52 52 49 40 34 38 38 29 25 30 27 25 25 23 24 25 19 13 11 9 12 19 20 19 15 24 38 39 43 43 50 50 49 46 46 49 45 46 47 48 50 51
54 53 53 52 46 47 41 41 45 37 24 25 25 23 23 24 22 23 22 16 12 11 9 9 11 12 16 20 43 37 45 44 46 46 42 47 41 44 48 50 45 46 47 50 51
54 53 52 51 37 40 40 45 37 28 20 26 24 22 19 20 17 20 18 13 10 10 10 8 13 16 14 16 45 32 37 44 48 45 44 45 43 43 47 49 47 46 47 49 51
53 53 52 49 48 41 43 41 28 23 19 24 16 18 18 18 17 17 17 16 15 12 14 11 17 17 16 17 35 27 20 26 34 43 37 40 42 36 42 44 50 50 48 48 51
51 52 50 45 30 43 43 31 20 21 24 18 22 14 16 16 16 15 17 16 15 11 10 13 14 18 17 16 13 14 12 11 11 27 22 34 41 36 28 41 46 51 51 49 49
51 50 50 46 44 43 34 28 17 25 27 29 29 16 13 14 15 17 15 14 15 16 16 12 8 17 16 15 14 11 11 10 9 10 13 20 17 16 28 45 50 48 53 51 48
49 41 42 42 47 41 31 21 18 28 29 29 27 13 13 15 15 17 16 15 15 17 14 14 14 18 18 13 12 10 9 11 10 8 7 7 8 22 40 48 50 50 52 51 47
41 38 35 42 44 35 28 24 30 31 31 29 26 24 24 25 20 14 15 17 16 18 18 17 15 17 17 16 11 12 11 10 8 7 6 6 6 8 10 31 49 51 50 50 48
36 37 36 39 39 32 25 27 31 32 32 29 26 25 26 26 23 16 18 20 19 19 19 18 16 16 18 16 16 9 9 8 9 7 5 4 5 21 32 34 46 48 51 51 50
33 34 36 39 34 35 32 33 32 30 30 22 29 28 25 25 24 22 22 31 37 26 21 19 17 16 16 18 19 15 12 8 9 7 10 8 5 11 32 31 31 37 47 51 51
36 35 36 36 31 28 28 30 26 22 25 22 26 26 27 26 26 26 28 37 39 37 33 22 19 19 21 20 16 16 11 9 10 10 9 7 6 11 14 29 42 41 47 51 52
36 27 33 35 35 27 26 25 22 27 27 25 25 29 29 28 34 30 37 38 39 39 41 33 21 23 23 22 21 20 15 11 11 9 9 9 8 9 11 13 17 27 49 51 53
40 37 40 28 30 32 30 25 27 27 32 29 26 28 33 29 35 37 38 38 38 39 38 34 30 26 26 29 25 21 18 15 11 11 11 12 10 11 13 18 21 35 47 51 53
39 38 39 35 36 26 31 32 32 34 32 28 30 31 30 35 38 36 38 37 36 37 37 37 32 34 33 32 29 29 26 18 15 12 11 11 11 28 36 38 46 47 50 51 53
46 46 40 36 34 24 35 36 36 36 33 33 36 31 28 37 39 38 39 38 35 35 36 36 35 34 32 31 31 29 24 25 17 41 38 14 30 45 42 43 43 48 52 51 54

GFSSW_sfc_30mbdewp_279.txt.gz
Dewpoint
56 56 55 55 55 56 56 56 56 56 56 56 56 56 58 59 57 51 19 28 52 64 65 64 66 65 64 60 62 64 47 38 42 45 46 50 50 52 53 53 52 56 58 61 66
56 55 55 55 55 55 55 56 55 56 55 55 56 57 58 58 50 28 24 49 61 67 64 64 63 64 63 60 58 53 48 48 42 44 48 49 49 51 51 51 54 59 62 65 66
56 56 56 55 55 55 55 55 55 55 55 55 55 57 58 58 38 22 42 52 64 67 66 66 64 63 57 57 57 55 48 52 45 44 49 49 50 50 48 48 51 56 61 63 64
55 55 55 55 55 55 55 55 55 54 54 55 56 58 58 50 20 37 61 66 68 65 60 62 61 55 52 52 56 50 51 51 43 48 49 49 50 47 49 50 52 59 61 62 63
55 55 55 55 55 54 54 54 54 54 54 55 57 58 52 29 29 56 67 69 65 49 54 57 54 54 50 52 53 49 48 46 45 48 49 50 49 46 49 52 57 60 62 61 62
55 55 55 55 55 55 54 54 54 54 54 57 57 57 40 30 42 63 61 53 43 45 52 57 50 54 51 53 51 51 46 44 46 48 49 48 49 48 50 53 56 59 60 60 61
55 55 55 55 54 54 55 54 54 54 56 57 57 55 30 27 45 57 51 39 45 51 56 54 45 44 53 52 55 52 44 44 45 45 47 48 46 45 51 53 55 57 58 60 61
55 55 55 55 54 54 54 55 55 55 57 57 57 48 11 34 49 47 45 40 46 50 56 47 43 54 56 57 51 50 50 42 46 45 46 44 42 45 51 52 53 54 56 57 59
55 55 55 55 54 54 54 54 55 57 57 57 48 36 12 43 37 37 42 35 40 45 43 40 44 53 52 49 47 49 46 47 48 50 45 45 44 46 50 50 51 52 54 55 57
55 55 54 54 54 54 53 54 56 54 54 54 49 29 27 31 34 37 41 38 34 26 20 28 37 44 50 45 36 41 43 44 48 49 50 45 44 45 50 49 49 51 52 53 53
55 54 54 54 54 53 53 48 34 31 36 9 21 24 29 31 33 32 37 35 22 17 23 21 28 32 39 47 45 45 43 38 43 50 50 49 50 48 47 49 49 49 50 51 51
54 54 54 54 53 53 47 35 33 35 32 32 31 29 31 33 24 30 29 27 22 22 13 18 26 28 33 44 44 40 38 37 43 50 49 48 47 49 46 47 48 49 49 50 50
53 53 53 53 52 49 38 34 39 37 29 26 30 27 25 26 23 26 28 20 17 15 12 21 21 21 22 17 19 27 32 37 41 50 50 49 46 48 49 46 47 48 48 49 49
53 52 52 53 47 47 43 42 45 40 26 25 25 23 24 24 22 24 24 19 13 16 12 12 12 13 17 18 32 30 44 43 44 43 38 48 30 45 47 48 45 46 47 48 49
52 51 51 51 37 40 41 44 39 29 21 27 24 24 22 22 20 22 19 14 12 11 11 13 15 16 14 17 40 33 42 43 46 44 43 42 39 36 47 47 48 46 46 47 48
51 51 50 50 48 43 43 39 30 24 21 24 18 20 20 18 17 18 21 18 16 13 15 12 16 17 13 19 39 32 25 34 41 43 29 36 37 24 36 40 45 49 48 47 48
51 50 49 45 30 42 43 32 22 22 27 19 21 16 18 18 18 18 19 18 16 13 12 14 11 17 19 15 16 17 15 15 15 21 17 33 40 30 34 37 42 45 50 50 49
50 49 50 45 43 43 35 30 17 24 28 30 29 16 15 16 16 17 18 19 18 17 17 12 4 15 18 13 14 16 14 14 13 12 12 28 22 22 24 22 41 49 49 51 50
49 42 43 40 45 42 33 22 20 28 30 29 25 17 14 15 15 18 17 16 17 18 16 17 15 18 18 15 16 15 14 14 12 12 10 12 15 14 17 30 49 51 51 52 52
42 39 36 39 42 36 31 24 30 31 31 29 26 23 16 22 15 16 18 19 17 18 19 20 17 18 18 16 13 15 14 12 14 14 13 13 14 10 15 16 27 50 51 53 53
39 36 36 40 40 33 29 29 32 32 32 29 27 27 27 27 24 16 17 30 32 21 19 19 17 17 19 17 17 14 13 13 13 13 13 13 12 19 27 37 36 38 44 51 52
37 33 36 40 35 35 33 33 31 25 26 23 28 27 27 26 25 24 26 34 39 26 21 20 18 19 18 20 20 18 17 17 15 18 14 13 12 18 23 34 36 26 40 44 49
36 34 37 37 32 30 29 28 24 23 25 24 26 27 29 29 28 27 32 37 39 39 33 22 21 21 22 21 18 19 17 17 15 15 16 13 13 17 20 22 29 31 33 44 52
36 29 33 37 36 29 27 25 23 30 29 27 28 31 31 30 36 33 37 38 39 41 38 33 26 27 21 23 24 26 23 16 14 15 16 16 15 19 21 25 21 26 33 44 51
40 37 39 28 31 31 29 27 27 28 32 32 29 30 33 30 34 37 38 37 38 39 40 36 33 25 26 26 30 30 27 26 19 20 18 18 17 20 28 29 32 35 43 49 51
37 35 36 35 35 28 32 34 33 33 33 29 31 32 30 36 38 37 38 37 36 37 38 38 35 36 34 34 32 29 30 29 28 25 21 18 18 37 44 44 45 47 50 51 53
48 46 36 37 33 24 36 36 36 36 34 36 36 35 30 38 39 39 39 38 37 36 34 34 36 36 30 34 33 30 31 29 28 37 33 22 34 46 44 46 50 55 56 56 56

GFSSW_sfc_30mbdewp_282.txt.gz
Dewpoint
56 56 56 55 55 56 56 56 56 56 56 56 56 56 58 59 57 49 26 31 48 61 64 61 62 64 61 59 60 59 40 36 39 37 43 46 45 48 49 49 49 52 51 56 61
56 56 56 56 56 55 55 56 56 56 56 56 56 56 58 58 44 21 29 50 62 66 61 60 60 61 61 57 55 51 40 41 40 43 42 45 46 47 47 47 51 52 57 59 61
56 56 56 55 55 55 55 55 55 55 55 55 56 57 58 57 35 19 38 60 64 66 64 63 62 60 54 56 54 47 43 46 41 43 45 45 47 47 45 44 47 53 57 59 59
56 56 55 55 55 55 55 55 55 54 55 55 56 58 58 49 24 38 59 58 66 64 61 59 58 53 49 49 51 45 46 44 41 44 45 45 47 43 46 46 46 51 57 59 59
56 55 55 55 55 55 55 55 55 54 54 55 57 58 53 36 30 53 68 67 62 53 54 53 50 50 48 49 47 44 44 42 44 45 45 47 45 44 46 49 48 52 56 57 56
55 55 55 55 55 55 55 55 54 54 54 56 58 57 42 26 40 50 51 56 49 44 52 50 45 50 49 50 47 44 43 43 45 45 46 45 46 46 47 50 52 55 56 56 55
55 55 55 55 55 55 55 55 55 54 54 57 57 52 32 30 42 46 46 36 36 47 47 43 40 40 50 49 49 43 40 42 44 44 45 46 45 44 48 50 49 50 52 53 54
55 55 55 55 55 55 55 54 55 56 57 57 57 45 20 35 42 39 36 31 34 45 54 39 38 49 50 52 47 44 44 41 43 43 45 44 43 46 48 48 47 48 50 52 53
55 55 55 55 54 54 54 54 55 56 57 56 49 35 19 42 37 30 31 32 40 52 49 36 38 46 47 47 44 43 39 40 44 44 44 44 44 46 48 48 47 48 49 52 53
54 54 54 55 54 54 54 54 55 55 51 49 44 29 23 27 34 33 33 35 43 41 28 30 33 40 43 42 35 34 34 36 43 46 45 44 44 46 48 48 48 48 49 50 52
54 53 53 54 54 53 52 46 41 36 25 10 11 23 27 32 33 31 34 36 35 36 39 32 36 33 37 40 38 35 35 37 40 45 46 46 47 48 47 47 48 49 49 49 50
53 53 53 53 53 53 49 35 35 37 28 32 29 25 29 29 26 29 33 31 37 40 35 38 32 32 33 38 35 27 29 37 41 46 47 44 45 47 48 48 47 48 49 49 49
52 52 52 52 52 49 36 35 39 40 28 27 24 24 24 24 21 26 26 29 28 30 30 35 25 24 26 24 23 26 33 37 39 45 46 41 42 44 46 48 48 48 49 50 48
52 52 51 51 47 42 42 42 41 41 25 24 18 21 22 24 21 25 27 24 20 24 25 28 26 22 24 23 22 26 38 37 36 35 32 38 30 39 42 46 46 47 47 49 50
52 51 51 50 42 35 41 42 39 33 18 23 21 25 23 22 21 23 25 19 14 14 17 22 18 18 23 27 24 30 33 33 32 31 30 33 28 32 40 39 41 45 46 47 49
52 51 50 48 43 37 41 40 31 25 23 22 20 20 19 20 17 21 21 17 14 10 10 12 14 16 15 19 25 27 25 31 30 24 19 25 24 24 28 29 31 34 44 46 48
51 50 49 41 31 39 42 33 24 21 26 18 16 17 18 18 16 18 20 16 10 6 5 4 7 10 14 13 18 21 19 17 16 15 14 22 17 22 27 26 25 32 31 45 48
51 49 49 39 37 40 38 31 23 22 23 27 23 15 16 16 17 16 18 16 15 14 10 5 -2 4 8 12 16 19 19 16 15 13 12 22 15 18 20 16 17 36 47 44 48
49 44 43 42 43 41 35 27 22 27 28 26 24 21 16 14 15 16 17 16 16 16 12 13 10 16 15 12 13 16 18 19 15 15 13 12 14 16 15 15 29 41 49 51 48
44 39 38 40 40 38 32 27 29 31 30 28 24 22 19 15 14 15 17 18 16 17 17 18 17 17 17 15 16 13 17 15 16 15 16 15 17 15 18 26 28 31 35 46 51
42 36 37 43 41 36 29 28 31 30 31 29 27 25 22 20 15 15 17 26 25 20 18 16 17 18 19 18 15 16 13 14 12 15 15 14 14 17 16 20 26 21 20 27 38
39 31 37 43 34 35 31 32 29 27 26 27 29 28 27 25 22 18 18 26 37 27 20 19 16 16 17 20 19 18 17 16 15 17 17 17 13 16 18 19 20 21 23 26 33
37 34 37 39 30 30 32 28 27 27 27 27 27 29 29 29 28 26 28 37 37 34 27 24 18 17 20 21 23 20 18 19 17 17 17 16 15 18 20 21 21 26 26 32 39
37 30 35 36 34 31 31 28 27 29 28 28 29 30 29 29 33 32 31 36 38 38 38 32 22 23 17 20 26 23 22 21 21 18 17 16 17 20 21 26 30 32 40 43 45
37 34 38 32 31 31 30 28 26 28 30 30 28 28 31 29 30 30 34 34 36 38 39 33 29 28 27 26 26 26 26 26 25 25 23 22 23 24 28 33 36 40 46 49 49
33 33 31 33 31 30 29 32 28 29 30 28 28 30 29 30 33 32 36 34 32 36 35 35 31 34 31 29 30 29 29 29 28 27 27 27 27 29 39 38 40 45 51 53 55
45 43 35 31 24 21 29 32 31 30 30 33 32 30 25 33 38 38 37 36 34 35 34 33 32 33 29 28 29 30 31 30 30 30 29 28 30 41 39 42 45 48 51 54 55

GFSSW_sfc_30mbdewp_285.txt.gz
Dewpoint
56 56 56 56 56 56 56 56 56 56 56 57 57 57 57 59 57 46 36 38 49 54 64 60 59 62 59 58 56 56 51 35 34 37 40 40 41 42 44 45 47 49 50 54 56
56 56 56 56 56 56 55 56 56 56 56 56 57 57 57 59 45 31 35 49 57 61 62 58 58 59 59 53 51 52 41 35 39 37 40 41 41 42 42 44 46 49 54 56 56
56 56 56 56 56 56 56 55 56 56 56 56 56 56 58 57 40 25 46 55 61 65 63 61 59 57 52 50 47 50 40 38 40 41 39 41 43 43 41 41 45 51 53 54 54
56 56 56 56 56 56 55 55 55 55 55 56 56 57 58 49 30 34 50 58 64 65 60 58 57 54 53 41 44 49 40 40 41 42 42 41 41 42 44 41 46 50 53 54 53
56 56 56 56 56 56 56 56 55 55 55 55 56 58 53 37 32 43 59 56 61 61 54 52 49 48 47 46 43 39 39 41 43 42 42 42 40 41 43 44 45 51 53 53 52
56 56 56 56 56 56 56 56 56 55 55 55 57 58 45 30 39 45 48 51 55 50 50 49 44 45 47 46 43 40 40 41 43 44 45 41 43 42 44 43 43 50 52 52 52
55 55 55 55 55 55 55 55 56 56 55 56 58 52 36 33 38 42 44 50 49 45 47 43 42 42 48 46 44 42 40 41 43 44 43 46 42 40 45 45 47 49 51 51 51
55 55 55 55 55 55 55 55 55 56 56 57 58 46 28 35 38 37 42 40 43 43 50 41 37 47 48 48 45 43 41 42 41 42 44 45 42 45 45 44 46 48 50 51 51
54 54 54 54 54 55 54 54 55 56 57 57 49 39 21 38 34 26 37 40 44 45 49 37 35 43 47 46 46 44 39 41 42 42 43 44 42 46 47 45 43 45 47 48 49
54 53 53 53 54 54 54 54 56 55 52 45 39 24 22 24 31 24 32 38 43 47 44 37 35 40 46 49 37 36 35 37 42 44 44 41 42 46 47 47 45 44 46 47 48
53 53 53 53 53 54 51 46 43 38 22 15 12 17 15 28 30 26 28 39 44 44 41 36 33 34 40 43 37 35 36 38 40 44 44 42 42 45 47 46 46 46 45 47 48
53 53 53 52 52 53 51 37 33 34 23 13 17 21 25 25 24 25 25 36 43 42 41 37 28 32 33 35 35 29 30 38 38 40 43 41 40 42 45 46 46 47 46 45 48
53 52 52 52 52 49 38 33 35 35 28 26 16 15 21 22 17 22 22 27 31 37 37 34 30 30 30 30 28 26 33 36 39 37 40 36 41 40 43 46 47 47 48 48 45
52 52 52 51 46 35 36 38 36 36 28 22 15 17 21 19 16 21 21 23 24 26 28 28 30 27 28 26 25 26 33 31 31 33 37 36 41 39 41 42 46 46 47 48 49
52 52 51 51 44 33 39 37 35 34 22 23 13 21 20 20 21 20 23 19 19 18 23 21 23 20 26 25 25 25 29 31 30 28 27 27 27 36 36 36 39 41 44 46 49
52 51 51 47 41 34 38 38 32 25 22 19 18 17 19 19 18 22 21 20 15 12 14 16 16 15 19 20 23 25 24 26 27 22 16 22 20 29 33 33 32 33 38 41 46
51 51 50 45 32 33 37 35 25 21 26 19 17 15 17 17 16 18 18 14 10 9 7 7 6 10 10 14 21 23 18 17 19 16 15 20 15 13 26 28 27 27 28 34 41
51 50 49 39 32 36 37 32 26 22 22 19 16 15 15 17 16 15 17 16 13 10 8 6 2 4 6 10 16 17 16 16 17 14 14 17 13 17 20 19 18 26 40 40 40
50 46 37 31 34 39 35 29 26 23 25 23 21 15 16 17 16 16 16 16 16 13 10 10 9 11 5 6 12 15 15 17 15 15 13 12 15 15 17 18 31 39 47 48 43
46 36 33 34 37 38 33 29 27 29 29 27 23 21 18 16 15 16 16 17 16 16 15 15 17 16 14 13 10 11 14 14 15 14 16 16 16 17 23 23 32 26 38 45 48
44 35 36 35 38 35 30 28 28 30 29 27 25 24 22 19 15 15 16 18 17 17 16 15 17 18 18 15 11 14 7 9 8 9 11 15 16 19 18 20 25 24 24 26 30
40 31 38 37 32 29 27 28 32 29 27 27 29 28 25 23 21 17 15 21 29 23 17 17 15 16 17 17 17 17 17 14 13 17 15 15 14 17 20 19 19 23 27 30 31
39 32 37 37 29 26 29 31 29 25 27 26 27 28 29 28 27 24 21 33 33 27 26 24 17 14 16 17 19 18 16 16 15 15 15 16 16 20 21 22 28 32 35 39 43
38 26 32 35 33 32 27 28 25 29 27 28 28 29 29 29 31 31 27 33 34 33 39 33 22 18 16 18 24 23 22 18 18 15 15 15 17 20 23 26 28 33 39 45 46
35 30 37 30 28 26 29 29 25 26 29 29 28 27 28 28 28 30 30 32 34 38 34 29 26 26 24 24 25 25 25 24 23 23 22 21 21 23 27 33 32 35 44 47 50
38 36 32 31 35 30 29 28 24 27 29 25 27 27 27 28 30 31 35 32 32 34 34 32 30 31 30 30 30 28 26 27 26 26 26 25 26 27 37 38 39 41 46 49 52
40 36 36 26 27 26 28 30 29 30 28 31 30 29 25 32 37 36 36 36 35 35 35 33 32 31 29 29 29 27 26 26 27 28 27 26 27 35 37 38 40 44 46 48 50

GFSSW_sfc_30mbdewp_288.txt.gz
Dewpoint
57 57 57 57 57 56 56 56 57 57 57 57 57 58 58 58 57 46 36 44 50 57 62 59 61 58 60 57 55 54 51 33 36 36 37 37 40 45 47 48 49 50 50 52 53
57 57 56 57 57 56 56 56 56 57 57 57 57 57 57 59 44 34 45 52 55 60 60 59 57 57 56 58 54 50 49 36 36 39 38 38 38 41 43 45 48 51 53 53 54
56 56 56 56 56 56 56 56 56 56 56 56 57 57 58 58 40 31 52 57 57 62 61 61 58 59 62 56 50 49 40 38 37 39 41 40 39 39 42 42 48 52 53 53 53
56 56 56 56 56 56 56 56 57 56 56 56 56 57 59 47 33 31 50 60 60 61 62 59 59 56 57 51 46 45 38 38 39 41 41 40 41 39 40 42 49 52 52 52 52
56 56 56 56 56 56 56 57 57 56 56 56 56 58 51 38 36 42 49 54 59 61 59 53 63 62 56 49 47 44 37 38 40 40 40 40 41 41 42 43 47 50 51 51 50
55 55 55 55 56 56 56 56 56 57 56 56 56 58 41 33 39 35 42 45 56 57 49 49 43 44 49 44 43 38 38 40 40 42 40 39 39 41 41 43 48 50 51 51 50
54 54 55 54 55 55 56 56 56 56 57 56 57 52 37 33 35 39 45 51 53 48 46 45 41 47 53 52 43 39 37 39 40 42 42 44 38 38 43 41 46 49 51 51 51
54 54 54 54 54 55 55 55 56 56 57 57 58 45 37 32 37 37 42 49 50 44 45 48 42 43 49 52 49 47 48 48 41 41 45 45 41 42 43 43 44 47 49 49 50
54 54 54 53 53 54 55 55 54 56 57 57 49 38 28 35 30 30 41 45 44 45 44 47 40 41 55 52 48 45 47 49 46 40 42 44 44 44 42 44 46 48 49 49 50
53 53 53 53 53 54 54 54 56 53 52 44 40 33 23 26 27 26 37 43 41 45 46 46 37 47 50 49 42 40 38 40 42 42 39 39 44 44 43 42 42 44 46 48 49
53 53 53 53 53 53 52 45 39 34 33 14 15 19 16 23 30 25 32 40 41 44 43 40 31 40 44 45 43 37 35 38 44 46 44 40 43 44 44 44 43 42 45 46 47
53 53 53 53 53 53 51 44 32 33 27 17 13 11 21 24 24 24 26 38 42 42 40 39 29 35 42 45 37 31 30 39 40 40 41 52 41 43 44 44 44 44 43 45 46
52 52 52 52 52 50 37 37 33 32 28 22 12 12 18 19 18 21 22 33 38 40 38 37 36 32 28 30 30 26 35 38 39 38 40 43 39 40 44 44 45 46 46 45 47
52 52 52 52 47 35 33 34 33 32 28 25 20 14 15 17 14 17 22 23 27 26 30 31 31 29 27 23 24 25 32 30 28 32 35 40 37 41 44 44 44 45 46 47 45
52 52 52 51 44 36 37 34 33 30 27 23 15 16 18 16 17 15 22 18 20 21 23 24 23 22 21 25 24 23 26 27 29 29 25 31 36 39 43 43 44 44 45 46 48
52 51 51 46 44 34 34 34 31 25 23 17 14 16 15 15 18 18 17 18 17 16 16 15 18 17 15 21 21 23 22 21 24 23 19 28 20 37 42 39 37 40 40 44 46
51 51 50 45 34 30 30 33 27 23 26 20 15 15 15 16 16 18 18 17 15 10 10 10 9 13 10 13 15 20 18 17 19 19 20 21 10 31 43 32 30 32 32 38 41
51 50 47 37 32 33 33 31 27 26 22 19 17 13 14 16 16 15 17 15 12 10 6 8 7 6 8 7 11 17 15 15 17 15 18 18 14 19 21 20 20 22 24 26 32
50 45 40 19 28 33 33 29 27 25 24 22 17 13 14 16 16 15 15 16 16 12 10 11 10 7 6 6 8 14 17 17 14 14 13 11 16 16 16 21 34 38 45 46 40
45 43 34 29 22 35 33 30 27 29 28 26 22 18 16 16 16 16 16 17 16 16 14 12 16 14 13 9 8 7 12 13 14 13 14 15 17 18 21 27 27 32 41 46 45
42 40 34 26 31 34 31 29 28 28 29 27 23 22 21 18 16 14 15 17 17 16 16 15 14 16 17 17 13 8 8 9 9 11 11 13 24 24 26 31 28 25 32 34 38
42 35 36 27 26 29 29 29 29 29 28 26 26 27 26 24 20 18 14 18 18 17 17 17 14 14 16 19 17 14 15 12 7 13 14 13 17 21 21 20 29 34 38 40 42
42 37 37 30 24 22 22 24 29 28 27 26 25 26 26 27 26 25 22 31 29 24 30 27 20 13 15 15 17 16 16 15 14 15 15 16 18 22 22 26 33 36 39 44 45
43 27 31 30 29 30 31 26 27 26 25 26 27 28 28 28 28 28 28 30 32 30 37 32 24 21 16 17 20 23 19 22 20 13 13 14 16 18 27 28 33 39 44 46 51
39 32 36 31 27 26 29 27 27 24 26 26 26 25 26 25 26 27 28 29 32 35 33 29 26 25 23 23 24 23 23 24 22 19 17 19 22 24 36 35 36 41 45 49 53
37 36 36 32 33 31 27 27 28 25 28 25 26 26 24 26 30 33 36 33 33 35 33 33 29 28 28 28 28 28 28 27 25 25 25 24 24 26 36 39 41 43 47 48 51
40 40 34 29 24 24 24 26 28 28 28 26 31 28 28 34 34 35 35 34 35 35 35 36 34 33 30 29 29 26 26 27 28 27 25 25 28 28 39 40 40 43 47 48 49

GFSSW_sfc_30mbdewp_291.txt.gz
Dewpoint
57 57 57 57 57 57 57 57 57 57 58 58 58 58 58 58 56 50 30 37 41 59 63 61 63 63 61 59 58 58 53 47 37 36 43 50 46 48 50 50 51 51 51 52 54
57 57 57 57 57 57 57 57 57 57 57 57 57 57 58 58 49 32 36 52 57 62 62 57 57 62 60 59 60 51 50 39 38 37 39 45 46 47 48 49 49 50 52 53 54
56 57 56 57 57 57 57 57 57 57 57 57 57 57 58 58 47 35 54 55 58 61 59 57 57 59 54 59 58 48 40 37 39 39 38 38 42 44 47 49 50 50 51 53 55
55 55 55 55 56 57 57 57 57 58 57 57 57 57 58 51 33 32 57 62 61 57 61 60 53 53 56 55 57 49 41 38 39 41 40 37 39 44 44 51 53 53 53 54 54
55 55 55 55 55 56 56 57 57 57 57 57 57 57 53 42 30 46 55 62 59 61 62 60 56 55 53 51 52 44 38 39 40 40 41 41 41 41 43 52 54 52 52 53 53
54 54 54 54 55 55 56 57 57 57 57 57 57 58 46 26 36 45 41 50 58 59 61 61 57 54 54 52 48 47 42 39 40 40 39 40 41 42 46 51 51 52 52 52 51
54 54 54 54 54 54 55 56 56 57 57 57 57 54 41 33 35 40 39 43 47 55 55 55 54 56 52 51 52 49 44 45 41 42 39 39 40 40 45 49 50 51 51 51 50
54 54 54 54 54 54 55 55 56 56 57 57 58 51 31 33 35 37 37 45 51 52 48 43 45 51 53 55 54 49 46 44 47 46 45 43 38 41 41 48 49 50 51 51 51
53 53 53 53 54 54 54 54 54 56 57 57 51 44 31 35 31 34 39 41 47 48 44 44 52 54 54 52 49 50 44 45 47 48 44 44 40 42 41 47 49 49 50 51 51
53 53 53 53 54 54 53 54 55 54 54 48 42 35 36 29 27 28 31 40 43 41 44 44 47 49 51 46 42 42 46 47 46 43 43 44 44 42 44 44 46 48 49 50 50
53 53 53 53 54 53 51 46 39 38 39 25 23 26 22 26 26 27 29 40 40 40 41 45 41 45 44 46 43 44 43 45 46 46 45 49 50 51 43 45 46 48 49 49 50
53 53 53 53 53 53 51 45 44 35 29 29 19 19 17 26 26 27 25 36 39 40 42 42 40 40 40 41 43 43 40 41 45 46 45 49 50 53 47 42 44 45 47 48 49
52 52 52 52 52 50 41 34 37 36 29 29 20 15 13 20 21 22 23 32 37 41 42 39 39 37 39 39 40 42 38 40 40 40 46 46 49 50 45 45 43 44 46 47 47
52 52 52 51 47 40 36 35 35 35 28 28 22 12 12 18 15 17 23 23 31 32 29 29 32 33 27 26 24 24 32 30 31 39 38 42 37 44 45 46 45 43 44 45 47
52 52 51 51 46 35 37 34 33 32 27 24 16 17 13 15 16 14 21 21 20 23 23 23 23 21 22 22 25 24 25 24 26 27 29 41 37 43 46 46 48 46 44 45 47
52 51 51 49 48 33 31 31 32 28 25 22 17 13 12 15 16 15 19 19 17 16 16 18 17 15 16 15 21 20 22 22 21 24 24 30 34 42 40 41 50 51 47 46 47
52 51 50 47 40 41 32 29 29 25 26 14 14 14 15 15 15 17 17 16 14 14 13 14 13 12 14 9 14 16 18 18 21 27 27 29 26 40 46 44 52 53 46 48 47
51 51 48 43 36 30 34 30 29 29 26 20 14 14 14 16 14 16 18 17 18 17 15 12 10 11 10 8 8 16 18 17 16 24 24 23 30 35 42 42 47 31 31 38 49
50 48 42 43 42 33 33 30 30 29 27 25 17 13 13 14 16 16 15 18 17 14 10 11 14 10 8 8 7 8 13 18 15 14 15 21 20 34 43 40 42 45 46 47 39
45 41 43 34 27 26 33 32 31 31 29 28 24 17 16 15 15 16 17 17 16 17 13 13 13 9 6 7 8 7 9 7 15 14 17 22 22 19 32 37 40 45 44 45 45
46 42 41 25 15 33 33 32 31 30 29 27 26 26 27 27 19 16 16 18 18 18 17 15 14 16 15 14 15 11 6 7 10 15 11 21 24 26 32 34 36 39 43 44 47
45 40 31 26 28 33 32 32 31 30 27 25 26 25 25 27 28 27 19 24 20 17 16 20 16 15 18 20 19 17 11 11 9 8 15 21 24 26 34 38 41 44 45 47 52
43 43 34 27 24 25 27 27 28 27 28 26 26 26 29 27 28 30 29 29 27 35 34 31 27 19 15 15 23 18 15 16 17 17 16 20 20 30 37 39 44 45 49 55 58
46 39 36 35 32 27 28 32 25 29 28 26 26 28 29 29 30 29 29 30 30 34 35 31 25 25 23 25 25 24 25 20 20 21 21 18 26 30 36 42 44 48 55 57 57
46 38 36 35 32 29 31 29 28 27 26 26 26 26 25 27 28 30 36 34 32 34 32 30 27 28 28 27 26 27 27 28 27 23 21 21 30 37 40 44 48 54 55 55 58
40 39 40 37 32 33 32 27 27 28 29 27 27 29 30 33 33 33 35 35 36 37 34 34 31 32 30 30 29 28 28 28 28 29 30 29 28 41 44 47 49 51 51 52 53
46 43 41 36 29 24 26 28 28 31 28 26 30 29 34 34 33 31 30 29 30 32 34 36 35 35 34 34 32 30 30 28 25 28 27 29 41 43 45 48 49 49 51 51 51

GFSSW_sfc_30mbdewp_297.txt.gz
Dewpoint
55 55 55 55 56 56 57 58 58 58 58 58 58 58 58 58 57 53 24 30 42 69 69 65 64 65 66 65 66 65 56 51 42 44 46 49 49 52 52 53 53 53 54 58 61
55 55 55 55 55 56 56 57 58 58 58 58 58 58 58 58 49 33 26 42 50 72 65 64 63 65 63 61 62 61 55 52 44 45 48 49 50 51 51 51 51 53 56 63 65
54 54 54 55 55 56 55 56 57 58 58 58 58 58 57 58 42 35 38 53 62 69 59 63 61 63 59 55 57 57 50 48 40 46 49 49 50 52 50 50 51 52 54 61 64
54 54 54 54 54 55 54 56 56 57 58 58 58 57 58 52 30 34 54 60 66 62 58 57 60 58 54 52 55 52 52 50 45 49 48 48 50 51 51 51 52 53 54 59 63
54 54 54 54 54 54 54 56 55 57 57 57 57 57 51 30 21 51 61 61 62 61 59 55 54 52 49 52 53 52 48 41 46 47 48 48 49 50 51 51 52 53 54 54 58
54 53 53 53 53 54 54 56 56 56 57 57 57 57 43 16 40 55 57 61 60 60 61 59 52 54 53 51 49 51 50 44 41 45 46 45 47 50 50 52 52 53 53 54 55
53 53 53 53 53 53 54 55 55 56 57 57 57 54 34 10 42 61 58 56 58 60 60 61 56 53 52 50 54 51 43 44 39 41 40 44 47 49 51 51 51 52 53 54 54
53 53 53 53 53 53 54 55 55 56 57 57 57 51 9 28 48 51 54 48 53 59 60 61 57 55 53 53 51 49 46 40 45 44 41 42 41 51 51 51 51 52 53 53 55
53 52 52 52 53 53 54 54 55 56 57 57 48 39 9 36 34 36 44 41 44 46 52 57 58 54 54 48 44 47 40 42 43 48 42 41 42 52 52 51 51 52 53 53 54
52 52 52 52 52 52 53 53 56 54 54 53 46 34 25 22 32 34 37 39 41 42 43 46 51 50 50 45 37 41 43 48 46 48 47 42 41 51 52 51 51 51 52 52 52
52 52 52 52 52 52 50 48 36 32 39 -1 6 24 23 26 29 29 35 36 37 40 38 41 43 42 44 45 45 45 47 42 46 49 49 45 44 49 50 50 50 51 51 51 51
53 53 52 52 52 52 50 38 38 36 32 34 25 25 27 25 15 26 30 30 35 34 40 41 40 42 43 45 44 44 45 45 46 47 50 48 47 47 48 49 49 50 50 51 51
52 52 52 52 52 49 39 32 38 32 29 31 32 27 25 15 11 21 28 30 37 37 38 37 40 39 36 43 44 43 42 45 44 48 49 48 45 45 49 50 49 49 50 50 51
52 52 52 51 43 42 38 37 34 34 28 28 28 25 19 15 16 23 27 27 31 32 34 36 35 20 20 39 44 40 43 43 43 45 41 46 38 44 45 49 50 48 48 49 50
52 52 51 50 42 31 35 34 33 32 24 30 26 22 21 14 15 16 24 24 24 29 23 26 21 15 14 17 39 28 34 42 43 44 41 44 38 39 48 46 48 49 47 49 50
52 51 51 49 47 34 38 34 32 27 24 25 20 16 14 14 13 17 17 22 22 20 19 18 17 16 15 15 14 19 21 23 30 35 36 37 39 36 44 44 47 49 48 47 49
51 51 50 48 20 42 32 33 27 25 28 24 17 11 9 9 9 11 15 17 18 15 14 16 15 15 15 11 12 16 18 16 18 23 19 33 38 35 42 46 47 49 48 47 47
51 51 49 49 44 38 34 29 25 28 29 30 15 12 9 13 12 14 16 16 17 15 15 12 12 12 12 12 12 14 12 13 12 14 14 27 29 33 42 46 48 49 49 51 48
50 47 45 44 48 39 32 26 21 30 31 30 15 12 12 14 15 15 16 16 17 16 12 13 11 13 14 12 12 10 8 15 12 18 17 23 28 36 44 44 45 46 46 47 50
46 45 40 44 43 34 30 27 30 33 32 30 17 15 13 15 13 14 15 17 17 18 16 13 10 13 12 8 9 6 11 4 9 7 7 16 25 29 41 41 43 44 44 51 52
46 41 43 41 33 33 28 29 32 34 32 29 27 26 26 27 21 20 16 17 19 18 17 14 13 12 11 9 7 10 10 8 9 13 8 12 21 33 34 42 42 50 58 58 56
39 36 37 29 27 32 29 34 33 32 31 27 27 26 25 27 27 29 22 26 30 19 17 15 14 13 13 20 23 19 18 11 6 5 14 18 21 42 42 49 57 57 59 60 62
36 38 41 28 23 25 29 27 29 27 26 27 26 27 30 28 27 32 32 33 36 30 21 21 17 14 13 18 25 26 28 22 16 18 15 18 30 47 55 57 57 58 57 57 59
43 38 37 29 30 26 26 27 27 30 30 28 26 27 27 29 35 33 34 36 36 38 35 29 26 16 12 20 26 26 30 28 26 25 23 22 37 48 55 55 56 56 55 54 56
41 39 40 28 31 34 32 30 29 29 29 31 33 32 25 27 33 32 31 33 34 31 36 28 25 27 30 32 30 28 26 26 25 28 26 25 38 44 52 56 56 55 52 51 55
41 40 42 38 39 32 30 30 29 28 28 32 32 32 32 29 30 31 29 28 29 26 29 36 34 34 32 30 31 26 27 39 40 39 29 33 39 48 52 52 51 51 50 49 52
47 47 43 39 38 33 33 27 27 28 27 34 33 31 29 28 30 29 29 28 27 22 22 32 33 32 28 28 31 27 31 41 42 44 44 33 46 50 50 50 50 50 50 49 51